Location: Ellerstadt
(49.4644°N, 8.2615°E)
Time: 12:08:12
(UTC+00:00)

Vanguard 1 - All Passes

Search period start: 13 June 2021 00:00
Search period end: 23 June 2021 00:00
Orbit: 650 x 3832 km, 34.2° (Epoch: 12 June)

Date Brightness Start Highest point End Pass type
(mag) Time Alt. Az. Time Alt. Az. Time Alt. Az.
13 Jun - 00:17:10 10° WSW 00:31:27 38° S 00:39:52 10° ESE visible
13 Jun - 02:42:36 10° WSW 02:51:32 25° SSW 02:57:21 10° SSE daylight
13 Jun - 19:54:31 10° S 20:08:03 21° SE 20:18:42 10° ESE visible
13 Jun - 22:13:43 10° SW 22:30:31 35° SSE 22:41:12 10° ESE visible
14 Jun - 00:38:07 10° WSW 00:52:10 38° S 01:00:26 10° SE visible
14 Jun - 03:04:03 10° WSW 03:11:52 21° SSW 03:17:16 10° SSE daylight
14 Jun - 20:12:57 10° SSW 20:28:48 26° SSE 20:40:40 10° ESE visible
14 Jun - 22:34:04 10° SW 22:51:23 39° S 23:02:05 10° ESE visible
15 Jun - 00:59:12 10° WSW 01:12:50 37° SSW 01:20:54 10° SE visible
15 Jun - 03:25:49 10° WSW 03:32:07 17° SW 03:36:46 10° S daylight
15 Jun - 18:19:21 10° SSE 18:27:14 13° SE 18:34:25 10° ESE daylight
15 Jun - 20:32:08 10° SSW 20:49:36 31° SSE 21:02:09 10° E visible
15 Jun - 22:54:41 10° WSW 23:12:13 42° S 23:22:52 10° ESE visible
16 Jun - 01:20:23 10° WSW 01:33:25 34° SSW 01:41:14 10° SE visible
16 Jun - 03:48:19 10° WSW 03:52:15 13° SW 03:55:29 10° SSW daylight
16 Jun - 18:35:01 10° S 18:47:45 18° SE 18:58:46 10° ESE daylight
16 Jun - 20:51:49 10° SW 21:10:25 36° SSE 21:23:22 10° E visible
16 Jun - 23:15:31 10° WSW 23:33:03 43° S 23:43:32 10° ESE visible
17 Jun - 01:41:42 10° W 01:53:54 31° SSW 02:01:25 10° SSE visible
17 Jun - 18:52:42 10° S 19:08:20 23° SE 19:21:21 10° E daylight
17 Jun - 21:11:54 10° SW 21:31:17 40° SSE 21:44:23 10° ESE visible
17 Jun - 23:36:30 10° WSW 23:53:49 43° S 00:04:07 10° ESE visible
18 Jun - 02:03:11 10° W 02:14:15 26° SSW 02:21:23 10° SSE visible
18 Jun - 19:11:22 10° SSW 19:28:59 29° SSE 19:43:13 10° E daylight
18 Jun - 21:32:18 10° SW 21:52:09 43° S 22:05:17 10° ESE visible
18 Jun - 23:57:38 10° WSW 00:14:32 42° SSW 00:24:36 10° SE visible
19 Jun - 02:24:53 10° W 02:34:29 22° SW 02:41:02 10° S visible
19 Jun - 17:17:26 10° SSE 17:27:21 14° SE 17:36:44 10° ESE daylight
19 Jun - 19:30:40 10° SSW 19:49:42 34° SSE 20:04:40 10° E daylight
19 Jun - 21:52:56 10° WSW 22:13:02 46° S 22:26:04 10° ESE visible
20 Jun - 00:18:52 10° W 00:35:10 39° SSW 00:44:58 10° SE visible
20 Jun - 02:47:01 10° W 02:54:35 17° SW 03:00:11 10° S daylight
20 Jun - 17:33:49 10° S 17:47:42 20° SE 18:00:35 10° E daylight
20 Jun - 19:50:25 10° SW 20:10:29 39° SSE 20:25:54 10° E visible
20 Jun - 22:13:46 10° WSW 22:33:54 47° S 22:46:46 10° ESE visible
21 Jun - 00:40:13 10° W 00:55:40 35° SSW 01:05:10 10° SE visible
21 Jun - 03:10:12 10° WSW 03:14:33 12° SW 03:18:13 10° SSW daylight
21 Jun - 17:51:46 10° S 18:08:08 25° SE 18:23:04 10° E daylight
21 Jun - 20:10:31 10° SW 20:31:19 43° SSE 20:46:56 10° E visible
21 Jun - 22:34:46 10° WSW 22:54:45 47° S 23:07:23 10° ESE visible
22 Jun - 01:01:41 10° W 01:16:04 31° SSW 01:25:11 10° SSE visible
22 Jun - 18:10:35 10° SSW 18:28:38 31° SE 18:44:56 10° E daylight
22 Jun - 20:30:55 10° SW 20:52:12 46° SSE 21:07:52 10° ESE visible
22 Jun - 22:55:53 10° WSW 23:15:31 46° SSW 23:27:53 10° SE visible
